Nausori, Fiji

8:21 AM FJST on December 03, 2016 (GMT +1300)
Nausori International

Weather History for NFNA - November, 2012

Change the Weather History Date:

Tuesday, November 13, 2012

  Actual Average Record
Temperature  
Mean Temperature 76 °F -  
Max Temperature 82 °F - - ()
Min Temperature 71 °F - - ()
Cooling Degree Days 12    
Growing Degree Days 26 (Base 50)    
Moisture  
Dew Point 72 °F    
Average Humidity 87    
Maximum Humidity 100    
Minimum Humidity 61    
Precipitation  
Precipitation 0.02 in - - ()
Sea Level Pressure  
Sea Level Pressure 29.88 in    
Wind  
Wind Speed 2 mph ()    
Max Wind Speed 10 mph    
Max Gust Speed -    
Visibility 12.9 miles    
Events Rain    
T = Trace of Precipitation, MM = Missing Value Source: Averaged Metar Reports

Daily Weather History Graph

Daily Weather History Graph

Search for Another Location

Airport or City:

Trip Planner

Search our weather history database for the weather conditions in past years. The results will help you decide how hot, cold, wet, or windy it might be!

Date:

Astronomy

Nov. 13, 2012 Rise Set
Actual Time 6:22 AM FJST 7:18 PM FJST
Civil Twilight 5:58 AM FJST 7:41 PM FJST
Nautical Twilight 5:31 AM FJST 8:08 PM FJST
Astronomical Twilight 5:03 AM FJST 8:36 PM FJST
Moon 5:19 AM FJST (11/13) 6:30 PM FJST (11/13)
Length of Visible Light 13h 42m
Length of Day
12h 56m
Waning Crescent, 1% of the Moon is Illuminated
Nov 13
Waning Crescent
Nov 14
New
Nov 21
First Quarter
Nov 29
Full
Dec 7
Last Quarter

Hourly Weather History & Observations

Time (FJST) Temp. Heat Index Dew Point Humidity Pressure Visibility Wind Dir Wind Speed Gust Speed Precip Events Conditions
12:00 AM 71.6 °F - 71.6 °F 100% 29.92 in 18.6 mi Calm Calm - N/A   Mostly Cloudy
1:00 AM 72 °F - 72 °F 98% 29.92 in 12 mi Calm Calm - - Rain Light Rain Showers
1:00 AM 71.6 °F - 71.6 °F 100% 29.92 in 24.9 mi Calm Calm - N/A   Scattered Clouds
2:00 AM 71.6 °F - 71.6 °F 100% 29.89 in 24.9 mi Calm Calm - N/A   Mostly Cloudy
3:00 AM 71.6 °F - 71.6 °F 100% 29.86 in 24.9 mi Calm Calm - N/A   Scattered Clouds
4:00 AM 72 °F - 72 °F 98% 29.86 in 12 mi Calm Calm - -   Partly Cloudy
4:00 AM 71.6 °F - 71.6 °F 100% 29.86 in 24.9 mi Calm Calm - N/A   Mostly Cloudy
5:00 AM 71.6 °F - 71.6 °F 100% 29.86 in 24.9 mi Calm Calm - N/A   Mostly Cloudy
6:00 AM 71.6 °F - 71.6 °F 100% 29.86 in 24.9 mi Calm Calm - N/A   Mostly Cloudy
7:00 AM 72 °F - 72 °F 98% 29.89 in 12 mi NNW 5.8 mph - -   Partly Cloudy
7:00 AM 71.6 °F - 71.6 °F 100% 29.89 in 24.9 mi NNW 5.8 mph - N/A   Mostly Cloudy
8:00 AM 73.4 °F - 71.6 °F 94% 29.89 in 24.9 mi Calm Calm - N/A   Mostly Cloudy
9:00 AM 73.4 °F - 73.4 °F 100% 29.92 in 24.9 mi Calm Calm - N/A   Overcast
10:00 AM 76 °F - 73 °F 88% 29.91 in 12 mi Calm Calm - -   Partly Cloudy
10:00 AM 77.0 °F - 73.4 °F 89% 29.89 in 24.9 mi Calm Calm - N/A   Overcast
11:00 AM 77.0 °F - 75.2 °F 94% 29.89 in 24.9 mi Calm Calm - N/A Rain Light Rain Showers
12:00 PM 82.4 °F 88.2 °F 73.4 °F 74% 29.86 in 31.1 mi East 6.9 mph - N/A   Mostly Cloudy
1:00 PM 82.4 °F 87.2 °F 71.6 °F 70% 29.86 in 31.1 mi East 10.4 mph - N/A   Mostly Cloudy
2:00 PM 82.4 °F 87.2 °F 71.6 °F 70% 29.83 in 31.1 mi ESE 8.1 mph - N/A   Mostly Cloudy
3:00 PM 82.4 °F 87.2 °F 71.6 °F 70% 29.83 in 31.1 mi East 8.1 mph - N/A   Mostly Cloudy
4:00 PM 82 °F - 71 °F 61% 29.85 in 31 mi East 10.4 mph - -   Partly Cloudy
4:00 PM 82.4 °F 87.2 °F 71.6 °F 70% 29.83 in 31.1 mi East 10.4 mph - N/A   Mostly Cloudy
5:00 PM 80.6 °F 84.6 °F 71.6 °F 74% 29.83 in 31.1 mi East 8.1 mph - N/A   Mostly Cloudy
6:00 PM 78.8 °F - 69.8 °F 74% 29.86 in 31.1 mi ESE 6.9 mph - N/A   Mostly Cloudy
7:00 PM 78 °F - 71 °F 74% 29.89 in 12 mi Calm Calm - -   Partly Cloudy
7:00 PM 78.8 °F - 71.6 °F 78% 29.89 in 24.9 mi Calm Calm - N/A   Mostly Cloudy
8:00 PM 77.0 °F - 71.6 °F 83% 29.89 in 24.9 mi Calm Calm - N/A   Mostly Cloudy
9:00 PM 77.0 °F - 71.6 °F 83% 29.89 in 24.9 mi Calm Calm - N/A Rain Light Rain Showers
10:00 PM 76 °F - 72 °F 84% 29.94 in 12 mi East 4.6 mph - -   Partly Cloudy
10:00 PM 75.2 °F - 71.6 °F 89% 29.92 in 24.9 mi East 4.6 mph - N/A   Mostly Cloudy
11:00 PM 75.2 °F - 73.4 °F 94% 29.92 in 24.9 mi ESE 3.5 mph - N/A   Mostly Cloudy